Regional Weather Roundup
Issued by NWS Memphis, TN

Home | Current Version | Previous Version | Text Only | Print | Product List | Glossary On
Versions: 1 2 3 4 5 6 7 8 9 10 11 12 13 14 15 16 17 18 19 20 21 22 23 24 25 26 27 28 29 30 31 32 33 34 35 36 37 38 39 40 41 42 43 44 45 46 47 48 49 50
000
ASUS44 KMEG 050900
RWRMEG
MEMPHIS CWA HOURLY WEATHER ROUNDUP
NATIONAL WEATHER SERVICE MEMPHIS TN
300 AM CST THU MAR 05 2015

...WEST TENNESSEE...

CITY           SKY/WX    TMP DP  RH WIND       PRES   REMARKS
MEMPHIS INTL   LGT SNOW  21  18  88 N17       30.25R VSB 3/4 WCI   7
NWS MEMPHIS      N/A     20 N/A N/A MISG        N/A
JACKSON        LGT SNOW  20  16  84 N17G23    30.26R VSB 1   WCI   5
LEXINGTON      CLOUDY    21  18  86 N13       30.18R WCI   9
SAVANNAH       CLOUDY    25  25 100 N12       30.13F WCI  14
DYERSBURG      CLOUDY    19   5  53 N18G26    30.33S WCI   4
UNION CITY     CLOUDY    18  16  93 N16       30.32R WCI   3
PARIS          CLOUDY    16  12  86 N10       30.26F WCI   3


...EASTERN ARKANSAS...

CITY           SKY/WX    TMP DP  RH WIND       PRES   REMARKS
JONESBORO      CLOUDY    19  17  92 N14       30.36R FOG     WCI   6
WEST MEMPHIS   FOG       20  19  96 N28G37    30.29S VSB 1/2 WCI   2
BATESVILLE     CLOUDY    21  16  79 NW7       30.37F WCI  13
NEWPORT        LGT SNOW  19  18  93 NE23      30.39R FOG     WCI   2
WALNUT RIDGE   MOCLDY    21  12  68 N10       30.38R WCI  10
BLYTHEVILLE    FOG       20  17  88 N24       30.34F VSB 3/4 WCI   3
SEARCY         LGT SNOW  21  18  88 N16       30.37F FOG     WCI   7
STUTTGART      CLOUDY    21  18  86 N22       30.30F VSB 1/2 WCI   5
PINE BLUFF     LGT SNOW  23  19  85 N20G37    30.32S VSB 1   WCI   8
MONTICELLO     MIX PCPN  25  21  85 N13G23    30.28R FOG     WCI  14


...NORTH MISSISSIPPI...

CITY           SKY/WX    TMP DP  RH WIND       PRES   REMARKS
TUPELO         LGT SNOW  30  27  88 NE18      30.10S FOG     WCI  18
OLIVE BRANCH   CLOUDY    21  21 100 CALM      30.24R VSB 1
TUNICA         LGT SNOW  23  21  93 N13       30.28R WCI  11
GREENWOOD      CLOUDY    31  28  89 N18G28    30.10S FOG     WCI  19
COLUMBUS       CLOUDY    35  32  88 N10       30.04S WCI  28
STARKVILLE     LGT RAIN  34  32  93 N9G16     30.04S WCI  26
GOLDEN TRIANGL CLOUDY    36  32  87 N18       30.02S WCI  25


...SOUTHEAST MISSOURI...

CITY           SKY/WX    TMP DP  RH WIND       PRES   REMARKS
WEST PLAINS    CLOUDY    20   7  57 N7        30.35R WCI  11
POPLAR BLUFF   CLOUDY    22   8  55 N14       30.35F WCI   9
CAPE GIRARDEAU CLOUDY    21  10  62 N16       30.34R WCI   7


...NORTHWEST ALABAMA...

CITY           SKY/WX    TMP DP  RH WIND       PRES   REMARKS
MUSCLE SHOALS  FRZ RAIN  32  28  85 N8G18     30.08F FOG     WCI  25


...MIDDLE TENNESSEE...

CITY           SKY/WX    TMP DP  RH WIND       PRES   REMARKS
NASHVILLE      FLURRIES  25  22  88 N15       30.18R WCI  13
CLARKSVILLE    FOG       19  16  88 N13       30.24R VSB 1/2 WCI   6
COLUMBIA       CLOUDY   N/A N/A N/A N10       30.11S


...WESTERN KENTUCKY...

CITY           SKY/WX    TMP DP  RH WIND       PRES   REMARKS
PADUCAH        CLOUDY    20   9  62 N14       30.32R WCI   7
FORT CAMPBELL  LGT SNOW  18  15  89 N8        30.25R FOG     WCI   8


...CENTRAL ARKANSAS...

CITY           SKY/WX    TMP DP  RH WIND       PRES   REMARKS
LITTLE ROCK    SNOW      23  18  81 N20G25    30.37F VSB 1/2 WCI   8


SKY/WX REPORTED AS FAIR MEANS FEW OR NO CLOUDS BELOW
12 THOUSAND FEET.



USA.gov is the U.S. government's official web portal to all federal, state and local government web resources and services.